Location: *
(38.9800°N, 16.0500°E)
Time: 18:43:01
(UTC+00:00)

Meteor 1-23 Rocket - Pass Details

Date: 07 April 2020
Orbit: 838 x 887 km, 81.3° (Epoch: 05 June)

Event Time Altitude Azimuth Distance (km) Brightness Sun altitude
Rises 03:44:20 0° 199° (SSW) 3,427 7.0 -9.6°
Reaches altitude 10° 03:46:47 10° 204° (SSW) 2,501 6.3 -9.2°
Maximum altitude 03:52:22 56° 282° (WNW) 1,031 4.4 -8.1°
Drops below altitude 10° 03:58:03 10° 0° (N) 2,546 6.9 -7.0°
Sets 04:00:35 0° 5° (N) 3,493 7.7 -6.6°
